Location: Unspecified
(0.0000°N, 0.0000°E)
Time: 11:07:04
(UTC+00:00)

Vanguard 2 - Pass Details

Date: 16 October 2022
Orbit: 553 x 2933 km, 32.9° (Epoch: 29 November)

Event Time Altitude Azimuth Distance (km) Brightness Sun altitude
Rises 21:11:31 0° 253° (WSW) 6,780 13.0 -50.6°
Reaches altitude 10° 21:19:24 10° 233° (SW) 5,611 12.3 -52.5°
Maximum altitude 21:27:54 16° 202° (SSW) 4,764 11.7 -54.6°
Drops below altitude 10° 21:35:14 10° 170° (S) 4,723 11.5 -56.3°
Enters shadow 21:35:24 10° 169° (S) 4,731 11.5 -56.4°
